Location: Edinburgh
(55.9500°N, 3.1600°W)
Time: 12:21:08
(UTC+01:00)

STRAND 1 - Visible Passes

Search period start: 14 May 2025 00:00
Search period end: 24 May 2025 00:00
Orbit: 763 x 775 km, 98.4° (Epoch: 14 May)

Date Brightness Start Highest point End Pass type
(mag) Time Alt. Az. Time Alt. Az. Time Alt. Az.
15 May ? 04:04:58 10° E 04:07:56 16° NE 04:10:54 10° N visible
16 May ? 03:32:28 10° NE 03:32:54 10° NE 03:33:21 10° NNE visible
18 May ? 03:57:34 10° ENE 04:00:13 14° NE 04:02:51 10° NNE visible
21 May ? 03:50:13 10° ENE 03:52:30 13° NE 03:54:47 10° NNE visible
21 May ? 22:26:43 10° NNW 22:27:50 11° NW 22:28:57 10° NW visible
